Flag for United Kingdom Weather past 2 weeks in Milton Keynes, England, United Kingdom

Now
39 °F

Clear.


Feels Like: 34 °F
Forecast: 34 / 55 °F
Wind: 8 mph from North

Location: Luton Airport


UV Index: 3 (Moderate)

Visibility: 10 mi


Pressure: 30.09 "Hg

Humidity: 87%

Dew point: 36 °F

Location of Milton KeynesLocation

Historic Weather in Milton Keynes

°F

Milton Keynes temperature yesterday

Maximum temperature yesterday: 59 °F (at 12:50 PM)
Minimum temperature yesterday: 43 °F (at 2:20 AM)
Average temperature yesterday: 50 °F

Past Weeks' High & Low Weather Summary

 TemperatureHumidityPressure
High64 °F (Apr 3, 3:20 PM)100% (Apr 3, 6:50 AM)30.45 "Hg (Apr 3, 6:50 AM)
Low34 °F (Apr 16, 5:50 AM)36% (Apr 16, 5:50 PM)29.50 "Hg (Apr 3, 11:20 AM)
Average50 °F77%30.05 "Hg
* Reported Apr 3 4:20 AM — Apr 18 4:50 AM, Milton Keynes, Weather by CustomWeather, © 2014

Note: Actual official high and low records may vary slightly from our data, if they occured in-between our weather recording intervals... More about our weather records

Advertising

Historic Weather Conditions — Data for Previous 24 hours

 ConditionsComfort  
Time TempWeatherWind HumidityBarometerVisibility
4:50 AM
Apr 18
39 °FClear.9 mph87%30.07 "Hg10 mi
4:20 AM41 °FClear.10 mph81%30.09 "Hg10 mi
3:50 AM41 °FClear.10 mph81%30.09 "Hg10 mi
3:20 AM41 °FClear.10 mph87%30.07 "Hg10 mi
2:50 AM41 °FClear.9 mph87%30.07 "Hg10 mi
2:20 AM43 °FClear.10 mph81%30.07 "Hg10 mi
1:50 AM43 °FClear.13 mph81%30.07 "Hg10 mi
1:20 AM45 °FClear.13 mph81%30.07 "Hg10 mi
12:20 AM46 °FClear.16 mph82%30.07 "Hg10 mi
11:50 PM
Apr 17
48 °FPassing clouds.13 mph76%30.07 "HgN/A
11:20 PM48 °FClear.12 mph76%30.07 "Hg10 mi
10:50 PM50 °FPassing clouds.12 mph71%30.07 "HgN/A
10:20 PM50 °FClear.12 mph71%30.07 "Hg10 mi
9:50 PM50 °FClear.10 mph71%30.07 "Hg10 mi
9:20 PM50 °FClear.9 mph71%30.07 "Hg10 mi
8:50 PM50 °FSunny.9 mph71%30.07 "Hg10 mi
8:20 PM52 °FScattered clouds.10 mph72%30.07 "HgN/A
7:50 PM52 °FScattered clouds.14 mph72%30.07 "HgN/A
7:20 PM52 °FPartly sunny.17 mph72%30.04 "HgN/A
6:50 PM54 °FPartly sunny.14 mph72%30.04 "HgN/A
5:50 PM55 °FPartly sunny.16 mph67%30.04 "HgN/A
5:20 PM55 °FPassing clouds.17 mph67%30.04 "HgN/A
4:50 PM55 °FScattered clouds.18 mph67%30.04 "HgN/A
4:20 PM55 °FScattered clouds.16 mph67%30.04 "HgN/A
3:50 PM55 °FScattered clouds.14 mph67%30.04 "HgN/A
3:20 PM55 °FPartly sunny.17 mph67%30.07 "HgN/A
2:50 PM57 °FScattered clouds.17 mph63%30.07 "HgN/A
2:20 PM57 °FScattered clouds.16 mph63%30.07 "HgN/A
1:50 PM57 °FPassing clouds.15 mph63%30.07 "HgN/A
1:20 PM57 °FPartly sunny.13 mph63%30.07 "HgN/A
12:50 PM59 °FPassing clouds.14 mph59%30.07 "HgN/A
12:20 PM57 °FSunny.12 mph59%30.07 "Hg10 mi
11:50 AM57 °FPassing clouds.13 mph59%30.09 "HgN/A
11:20 AM57 °FSunny.13 mph55%30.09 "Hg10 mi
10:50 AM55 °FSunny.14 mph59%30.12 "Hg10 mi
10:20 AM54 °FSunny.12 mph63%30.12 "Hg10 mi
9:50 AM54 °FSunny.15 mph58%30.12 "Hg10 mi
9:20 AM54 °FSunny.10 mph58%30.12 "Hg10 mi
8:20 AM50 °FSunny.7 mph71%30.12 "Hg10 mi
7:20 AM45 °FSunny.7 mph81%30.12 "Hg10 mi
6:50 AM45 °FClear.10 mph81%30.15 "Hg10 mi
6:20 AM43 °FClear.8 mph87%30.12 "Hg10 mi
5:50 AM43 °FClear.8 mph81%30.12 "Hg10 mi
5:20 AM43 °FClear.8 mph81%30.12 "HgN/A
Weather by CustomWeather, © 2014

See weather overview